Cartersville, GA

6:11 PM EDT on September 20, 2017 (GMT -0400)
Cartersville

Weather History for KVPC - June, 2013

Change the Weather History Date:

Friday, June 7, 2013

  Actual Average Record
Temperature  
Mean Temperature 76 °F 73 °F  
Max Temperature 85 °F 85 °F 95 °F (2008)
Min Temperature 66 °F 61 °F 50 °F (2006)
Cooling Degree Days 11 8  
Month to date cooling degree days 73 53  
Year to date cooling degree days 198 202  
Since 1 June cooling degree days 73 53  
Growing Degree Days 24 (Base 50)    
Moisture  
Dew Point 68 °F    
Average Humidity 79    
Maximum Humidity 100    
Minimum Humidity 58    
Precipitation  
Precipitation 1.03 in 0.11 in 1.03 in (2013)
Month to date precipitation 1.49 0.82  
Year to date precipitation 13.30 22.98  
Sea Level Pressure  
Sea Level Pressure 29.78 in    
Wind  
Wind Speed 1 mph (NNW)    
Max Wind Speed 3 mph    
Max Gust Speed 6 mph    
Visibility 8 miles    
Events Fog , Rain , Thunderstorm    
T = Trace of Precipitation, MM = Missing Value Source: NWS Daily Summary

Daily Weather History Graph

Daily Weather History Graph

Search for Another Location

Airport or City:

Trip Planner

Search our weather history database for the weather conditions in past years. The results will help you decide how hot, cold, wet, or windy it might be!

Date:

Astronomy

Jun. 07, 2013 Rise Set
Actual Time 6:27 AM EDT 8:49 PM EDT
Civil Twilight 5:58 AM EDT 9:18 PM EDT
Nautical Twilight 5:22 AM EDT 9:54 PM EDT
Astronomical Twilight 4:43 AM EDT 10:33 PM EDT
Moon 5:46 AM EDT (6/7) 8:05 PM EDT (6/7)
Length of Visible Light 15h 19m
Length of Day
14h 21m
Waning Crescent, 1% of the Moon is Illuminated
Jun 7
Waning Crescent
Jun 8
New
Jun 16
First Quarter
Jun 23
Full
Jun 30
Last Quarter

Hourly Weather History & Observations

Time (EDT) Temp. Heat Index Dew Point Humidity Pressure Visibility Wind Dir Wind Speed Gust Speed Precip Events Conditions
12:53 AM 71.1 °F - 69.1 °F 93% 29.75 in 10.0 mi Calm Calm - N/A   Mostly Cloudy
1:53 AM 70.0 °F - 68.0 °F 93% 29.73 in 10.0 mi Calm Calm - N/A   Partly Cloudy
2:07 AM 69.8 °F - 69.8 °F 100% 29.76 in 10.0 mi Calm Calm - N/A   Mostly Cloudy
2:25 AM 68.0 °F - 68.0 °F 100% 29.74 in 10.0 mi Calm Calm - N/A   Scattered Clouds
2:53 AM 69.1 °F - 68.0 °F 96% 29.70 in 10.0 mi Calm Calm - N/A   Mostly Cloudy
3:01 AM 69.8 °F - 68.0 °F 94% 29.74 in 10.0 mi Calm Calm - N/A   Scattered Clouds
3:06 AM 68.0 °F - 66.2 °F 94% 29.74 in 10.0 mi Calm Calm - N/A   Mostly Cloudy
3:46 AM 68.0 °F - 66.2 °F 94% 29.73 in 10.0 mi Calm Calm - N/A   Mostly Cloudy
3:53 AM 68.0 °F - 66.9 °F 96% 29.69 in 10.0 mi Calm Calm - N/A   Partly Cloudy
4:53 AM 66.9 °F - 66.9 °F 100% 29.69 in 10.0 mi Calm Calm - N/A   Mostly Cloudy
5:11 AM 68.0 °F - 66.2 °F 94% 29.73 in 10.0 mi Calm Calm - N/A   Overcast
5:53 AM 66.9 °F - 66.9 °F 100% 29.70 in 10.0 mi Calm Calm - N/A   Overcast
6:12 AM 68.0 °F - 68.0 °F 100% 29.74 in 10.0 mi Calm Calm - N/A   Overcast
6:44 AM 68.0 °F - 66.2 °F 94% 29.74 in 10.0 mi Calm Calm - N/A   Scattered Clouds
6:53 AM 68.0 °F - 66.9 °F 96% 29.70 in 10.0 mi Calm Calm - N/A   Partly Cloudy
7:53 AM 69.1 °F - 69.1 °F 100% 29.73 in 10.0 mi Calm Calm - N/A   Mostly Cloudy
8:32 AM 69.8 °F - 69.8 °F 100% 29.76 in 8.0 mi Calm Calm - N/A   Overcast
8:53 AM 70.0 °F - 69.1 °F 97% 29.74 in 7.0 mi Variable 3.5 mph - N/A   Overcast
9:23 AM 71.6 °F - 69.8 °F 94% 29.79 in 9.0 mi Calm Calm - N/A   Overcast
9:53 AM 73.9 °F - 69.1 °F 85% 29.76 in 10.0 mi Calm Calm - N/A   Unknown
10:06 AM 75.2 °F - 69.8 °F 83% 29.79 in 10.0 mi North 3.5 mph - N/A   Overcast
10:23 AM 75.2 °F - 69.8 °F 83% 29.78 in 10.0 mi Calm Calm - N/A   Mostly Cloudy
10:45 AM 77.0 °F - 69.8 °F 78% 29.79 in 10.0 mi Calm Calm - N/A   Scattered Clouds
10:53 AM 77.0 °F - 69.1 °F 76% 29.75 in 10.0 mi NNW 3.5 mph - N/A   Mostly Cloudy
11:25 AM 78.8 °F - 68.0 °F 69% 29.79 in 10.0 mi Variable 3.5 mph - N/A   Scattered Clouds
11:53 AM 78.1 °F - 69.1 °F 74% 29.76 in 10.0 mi Variable 3.5 mph - N/A   Unknown
12:53 PM 81.0 °F 83.3 °F 66.9 °F 62% 29.75 in 10.0 mi Calm Calm - N/A   Mostly Cloudy
1:53 PM 82.9 °F 85.0 °F 66.0 °F 56% 29.73 in 10.0 mi Calm Calm - N/A   Mostly Cloudy
2:53 PM 82.9 °F 85.0 °F 66.0 °F 56% 29.72 in 10.0 mi Variable 4.6 mph - N/A   Partly Cloudy
3:22 PM 80.6 °F 82.7 °F 66.2 °F 61% 29.75 in 10.0 mi Variable 3.5 mph - N/A Thunderstorm Unknown
3:56 PM 73.4 °F - 71.6 °F 94% 29.76 in - Calm Calm - 0.04 in Thunderstorm Thunderstorm
4:05 PM 73.4 °F - 69.8 °F 88% 29.77 in 10.0 mi Calm Calm - 0.04 in Thunderstorm Unknown
4:21 PM 69.8 °F - 66.2 °F 88% 29.82 in 2.5 mi Variable 4.6 mph - 0.08 in Rain , Thunderstorm Light Thunderstorms and Rain
4:24 PM 68.0 °F - 66.2 °F 94% 29.83 in 0.8 mi Variable 5.8 mph - 0.22 in Rain , Thunderstorm Heavy Thunderstorms and Rain
4:30 PM 66.2 °F - 66.2 °F 100% 29.82 in 0.2 mi NNW 11.5 mph 18.4 mph 0.83 in Fog , Rain , Thunderstorm Heavy Thunderstorms and Rain
4:40 PM 66.2 °F - 66.2 °F 100% 29.82 in 1.0 mi NW 5.8 mph 17.3 mph 0.93 in Rain , Thunderstorm Heavy Thunderstorms and Rain
4:45 PM 66.2 °F - 66.2 °F 100% 29.83 in 3.0 mi Calm Calm - 0.93 in Rain , Thunderstorm Light Thunderstorms and Rain
4:53 PM 66.9 °F - 66.9 °F 100% 29.81 in 10.0 mi Calm Calm - 0.93 in Rain , Thunderstorm Light Rain
5:11 PM 66.2 °F - 66.2 °F 100% 29.83 in 3.0 mi Calm Calm - 0.03 in Rain Rain
5:20 PM 66.2 °F - 66.2 °F 100% 29.82 in 2.5 mi Calm Calm - 0.06 in Rain Rain
5:30 PM 66.2 °F - 66.2 °F 100% 29.82 in 3.0 mi Calm Calm - 0.09 in Rain Rain
5:53 PM 68.0 °F - 68.0 °F 100% 29.78 in 10.0 mi Calm Calm - 0.09 in Rain Light Rain
6:36 PM 69.8 °F - 68.0 °F 94% 29.81 in 10.0 mi Calm Calm - 0.01 in   Mostly Cloudy
6:53 PM 69.1 °F - 69.1 °F 100% 29.78 in 10.0 mi Calm Calm - 0.01 in   Overcast
7:10 PM 69.8 °F - 68.0 °F 94% 29.81 in 10.0 mi Calm Calm - N/A   Overcast
7:20 PM 69.8 °F - 69.8 °F 100% 29.82 in 10.0 mi Calm Calm - N/A   Overcast
7:53 PM 70.0 °F - 69.1 °F 97% 29.80 in 8.0 mi Calm Calm - N/A   Overcast
8:03 PM 69.8 °F - 69.8 °F 100% 29.83 in 8.0 mi Calm Calm - N/A   Overcast
8:53 PM 70.0 °F - 69.1 °F 97% 29.81 in 6.0 mi Calm Calm - N/A   Mostly Cloudy
9:21 PM 69.8 °F - 69.8 °F 100% 29.85 in 7.0 mi Calm Calm - N/A   Mostly Cloudy
9:29 PM 69.8 °F - 69.8 °F 100% 29.85 in 7.0 mi Calm Calm - N/A   Overcast
9:36 PM 68.0 °F - 68.0 °F 100% 29.85 in 6.0 mi Calm Calm - N/A   Mostly Cloudy
9:53 PM 69.1 °F - 69.1 °F 100% 29.83 in 6.0 mi Calm Calm - N/A   Partly Cloudy
10:07 PM 68.0 °F - 68.0 °F 100% 29.87 in 6.0 mi Calm Calm - N/A   Partly Cloudy
10:53 PM 68.0 °F - 68.0 °F 100% 29.85 in 5.0 mi Calm Calm - N/A   Mist
11:27 PM 68.0 °F - 66.2 °F 94% 29.89 in 4.0 mi Calm Calm - N/A   Scattered Clouds
11:34 PM 66.2 °F - 66.2 °F 100% 29.89 in 4.0 mi Calm Calm - N/A   Mostly Cloudy
11:53 PM 68.0 °F - 68.0 °F 100% 29.87 in 4.0 mi Calm Calm - N/A   Overcast